Location: Auckland
(36.8670°S, 174.7670°E)
Time: 19:50:35
(UTC+13:00)

ISS - Pass Details

Date: 02 February 2019
Orbit: 403 x 411 km, 51.6° (Epoch: 21 February)

Event Time Altitude Azimuth Distance (km) Brightness Sun altitude
Exits shadow 04:30:02 42° 192° (SSW) 609 -2.8 -22.0°
Drops below altitude 10° 04:32:51 10° 142° (SE) 1,498 0.2 -21.6°
Sets 04:35:01 0° 135° (SE) 2,364 1.6 -21.3°
